Tracking 20945 objects as of 8-Jul-2020
HD Live streaming from Space Station
objects crossing your sky now

FENGYUN 1C DEB

Track FENGYUN 1C DEB now!
10-day predictions


NORAD ID: 30471
Int'l Code: 1999-025AGJ
Perigee: 822.5 km
Apogee: 960.3 km
Inclination: 99.2 °
Period: 102.7 minutes
Semi major axis: 7262 km
RCS: 0.033 m2 (small)
Launch date: May 10, 1999
Source: People's Republic of China (PRC)
Launch site: Taiyaun Space Center, China (TSC)

Note: This is SATELLITE DEBRIS
aabbcc
Your satellite tracking list
Your tracking list is empty




NASA's NSSDC Master Catalog

Two Line Element Set (TLE):
1 30471U 99025AGJ 20189.83365861 +.00000176 +00000-0 +13759-3 0  9992
2 30471 099.1692 238.7684 0094857 018.6886 043.7659 14.02765764685578
Source of the keplerian elements: AFSPC